User: anonymous
Location: Melbourne
(37.8170°S, 144.9670°E)
Time: 09:43:52
(UTC+10:00)
Language:

ADEOS Rocket - Orbit

View from above orbital plane
View from above orbital plane
View from above satellite
View from above satellite

Ground track
Ground track

The orbit data is extracted from the following two-line orbital elements,

1 24279U 96046C   14245.31723662 -.00000023  00000-0  16415-4 0  7091
2 24279 098.7409 303.3129 0300050 008.4977 051.3794 13.46988884887075
Epoch (UTC): 02 September 2014 07:36:49
Eccentricity: 0.0300050
inclination: 98.7409°
perigee height: 859 km
apogee height: 1307 km
right ascension of ascending node: 303.3129°
argument of perigee: 8.4977°
revolutions per day: 13.46988884
mean anomaly at epoch: 51.3794°
orbit number at epoch: 88707

The dashed part of the orbit path shows where the satellite is in the earth's shadow,  

DLR